Weather History for Norwood, MA

Change the Weather History Date:

Wednesday, March 28, 2012

  Actual Average Record
Temperature  
Mean Temperature 40 °F -  
Max Temperature 52 °F 48 °F 86 °F (1998)
Min Temperature 28 °F 32 °F 21 °F (2006)
Degree Days  
Heating Degree Days 25    
Moisture  
Dew Point 30 °F    
Average Humidity 62    
Maximum Humidity 90    
Minimum Humidity 27    
Precipitation  
Precipitation 0.03 in - - ()
Sea Level Pressure  
Sea Level Pressure 29.80 in    
Wind  
Wind Speed 4 mph (SSW)    
Max Wind Speed 14 mph    
Max Gust Speed 22 mph    
Visibility 10 miles    
Events Rain    
Averages and records for this station are not official NWS values.
T = Trace of Precipitation, MM = Missing Value Source: NWS Daily Summary

Daily Weather History Graph

Daily Weather History Graph

Search for Another Location

Airport:

Trip Planner

Search our weather history database for the weather conditions in past years. The results will help you decide how hot, cold, wet, or windy it might be!

Date:

Astronomy

Mar. 28, 2012 Rise Set
Actual Time 6:33 AM EDT 7:06 PM EDT
Civil Twilight 6:05 AM EDT 7:34 PM EDT
Nautical Twilight 5:32 AM EDT 8:07 PM EDT
Astronomical Twilight 4:57 AM EDT 8:42 PM EDT
Moon 9:42 AM EDT (3/28) 12:11 AM EDT (3/28)
Length of Visible Light 13h 29m
Length of Day
12h 33m
Waxing Crescent, 30% of the Moon is Illuminated
Mar 28
Waxing Crescent
Mar 30
First Quarter
Apr 6
Full
Apr 13
Last Quarter
Apr 21
New

Hourly Weather History & Observations

Time (EDT) Temp. Windchill Dew Point Humidity Pressure Visibility Wind Dir Wind Speed Gust Speed Precip Events Conditions
12:53 AM 28.9 °F 25.2 °F 10.0 °F 45% 30.15 in 10.0 mi WNW 3.5 mph - N/A   Clear
1:53 AM 30.0 °F - 12.0 °F 47% 30.12 in 10.0 mi Calm Calm - N/A   Partly Cloudy
2:53 AM 32.0 °F - 17.1 °F 54% 30.08 in 10.0 mi Calm Calm - N/A   Overcast
3:53 AM 33.1 °F - 18.0 °F 54% 30.10 in 10.0 mi Calm Calm - N/A   Overcast
4:53 AM 34.0 °F - 18.0 °F 52% 30.09 in 10.0 mi Calm Calm - N/A   Overcast
5:53 AM 35.1 °F - 18.0 °F 50% 30.07 in 10.0 mi Calm Calm - N/A   Overcast
6:53 AM 34.0 °F - 19.0 °F 54% 30.05 in 10.0 mi Calm Calm - N/A   Overcast
7:53 AM 37.9 °F 34.4 °F 9.0 °F 30% 30.01 in 10.0 mi SE 4.6 mph - N/A   Overcast
8:53 AM 41.0 °F 39.0 °F 9.0 °F 27% 29.97 in 10.0 mi Variable 3.5 mph - N/A   Overcast
9:53 AM 44.1 °F 40.1 °F 18.0 °F 35% 29.93 in 10.0 mi SSE 6.9 mph - N/A   Overcast
10:53 AM 50.0 °F - 25.0 °F 38% 29.85 in 10.0 mi SSE 12.7 mph - N/A   Overcast
11:53 AM 50.0 °F - 34.0 °F 54% 29.85 in 10.0 mi SW 11.5 mph 17.3 mph 0.00 in   Overcast
12:53 PM 50.0 °F - 39.9 °F 68% 29.77 in 10.0 mi South 13.8 mph 21.9 mph 0.03 in   Scattered Clouds
1:53 PM 48.9 °F - 41.0 °F 74% 29.73 in 9.0 mi SSW 11.5 mph 21.9 mph 0.00 in Rain Light Rain
2:53 PM 48.9 °F - 41.0 °F 74% 29.68 in 10.0 mi SSW 9.2 mph 19.6 mph 0.00 in   Overcast
3:53 PM 50.0 °F - 41.0 °F 71% 29.63 in 10.0 mi SSW 10.4 mph - N/A   Overcast
4:53 PM 50.0 °F - 41.0 °F 71% 29.62 in 10.0 mi SW 6.9 mph - N/A   Overcast
5:53 PM 52.0 °F - 42.1 °F 69% 29.56 in 10.0 mi SSW 5.8 mph - N/A   Scattered Clouds
6:29 PM 51.8 °F - 42.8 °F 71% 29.58 in 10.0 mi SW 3.5 mph - N/A   Overcast
6:53 PM 51.1 °F - 42.1 °F 71% 29.58 in 10.0 mi SW 5.8 mph - N/A   Overcast
7:07 PM 51.8 °F - 42.8 °F 71% 29.58 in 10.0 mi SSW 4.6 mph - N/A   Overcast
7:53 PM 48.9 °F - 42.1 °F 77% 29.57 in 10.0 mi Calm Calm - N/A   Scattered Clouds
8:53 PM 43.0 °F - 39.0 °F 86% 29.59 in 10.0 mi Calm Calm - N/A   Clear
9:53 PM 43.0 °F - 39.9 °F 89% 29.56 in 6.0 mi Calm Calm - N/A   Partly Cloudy
10:53 PM 43.0 °F - 39.9 °F 89% 29.56 in 8.0 mi Calm Calm - N/A   Partly Cloudy
11:53 PM 45.0 °F - 42.1 °F 90% 29.54 in 7.0 mi Calm Calm - N/A   Overcast